SPACEBEE-31 (46947 NORAD) Tracking and Keplerian Element Data
This shows tracking and keplerian element data for the satellite.
Feedback or suggestion? Click here.
Element | Value |
Catalog | 46947 |
Name | SPACEBEE-31 |
Epoch Orbit | 896 |
Epoch Day | 18.08605887 |
Epoch Year | 2021 |
RAAN | 157.4366 |
Inclination | 97.3731 |
Eccentricity | 0.0016494 |
Argument of Perigee | 102.6564 |
Mean Anonmoly | 257.6471 |
Mean Motion | 15.20951784 |
Decay Rate | 3.585E-05 |
L1 | 1 46947U 20085U 21018.08605887 .00003585 00000-0 16444-3 0 9992 |
L2 | 2 46947 97.3731 157.4366 0016494 102.6564 257.6471 15.20951784 8969 |
Live tracking and technical data element details for SPACEBEE-31 (NORAD 46947). SPACEBEE-31 can be tracked NOW for your location showing map with azimuth and elevation plus other details from your city location.
Track the satellite on the map from your city or location and see movement details for azimuth, elevation, latitude, longitude, range, height, and movement on the map or in text.
IsCatalogInMostPopularTable: catalog: 46947, numindb: 23
Update: records affected: 1
GetName: 46947 SPACEBEE-31
Hit Count: updated at: Tue, 19 Jan 2021 02:45:52 GMT